Location: Lecco
(45.8566°N, 9.3977°E)
Time: 04:20:15
(UTC+02:00)

Transit 4A - Pass Details

Date: 21 August 2020
Orbit: 863 x 982 km, 66.8° (Epoch: 23 September)

Event Time Altitude Azimuth Distance (km) Brightness Sun altitude
Rises 07:21:28 0° 185° (S) 3,483 10.8 7.8°
Reaches altitude 10° 07:24:04 10° 177° (S) 2,565 10.2 8.3°
Maximum altitude 07:29:29 38° 111° (ESE) 1,376 9.8 9.2°
Drops below altitude 10° 07:35:06 10° 46° (NE) 2,657 11.3 10.2°
Sets 07:37:50 0° 39° (NE) 3,624 11.7 10.7°
